User: anonymous   Login
Location: Breitenfeld
(46.8500°N, 15.6333°E)
Time: 12:13:08
(UTC+00:00)
Language:

Transit 4B - Orbit

View from above orbital plane
View from above orbital plane
View from above satellite
View from above satellite

Ground track
Ground track

The orbit data is extracted from the following two-line orbital elements,

1 00202U 61031A   22148.85509115  .00000052  00000-0  35906-4 0  9990
2 00202  32.4360 215.6623 0100995 131.9079 229.0206 13.63569070 18812
Epoch (UTC): 28 May 2022 20:31:19
Eccentricity: 0.0100995
inclination: 32.4360°
perigee height: 948 km
apogee height: 1097 km
right ascension of ascending node: 215.6623°
argument of perigee: 131.9079°
revolutions per day: 13.63569070
mean anomaly at epoch: 229.0206°
orbit number at epoch: 1881

The dashed part of the orbit path shows where the satellite is in the earth's shadow,  

DLR